Regional Weather Roundup
Issued by NWS

Home | Current Version | Previous Version | Text Only | Print | Product List | Glossary Off
Versions: 1 2 3 4 5 6 7 8 9 10 11 12 13 14 15 16 17 18 19 20 21 22 23 24 25 26 27 28 29 30 31 32 33 34 35 36 37 38 39 40 41 42 43 44 45 46 47 48 49 50

000
ASUS43 KLSX 301959
RWRMO

WEATHER SUMMARY FOR MISSOURI
NATIONAL WEATHER SERVICE SPRINGFIELD MO
300 PM CDT THU JUL 30 2015

NOTE: "FAIR" INDICATES FEW OR NO CLOUDS BELOW 12,000 FEET WITH NO
       SIGNIFICANT WEATHER AND/OR OBSTRUCTIONS TO VISIBILITY.
       CURRENT SKY AND/OR WEATHER CONDITIONS ARE NOT AVAILABLE FOR
       CHILLICOTHE AND FARMINGTON.

MOZ001>031-035>038-043-044-053-054-302100-
...NORTHERN AND WESTERN MISSOURI...

CITY           SKY/WX    TMP DP  RH WIND       PRES   REMARKS
KANSAS CTY INT PTSUNNY   84  65  52 SW7       30.20F
KANSAS C DTWN  PTSUNNY   88  54  31 S8        30.18F
LEE`S SUMMIT   CLOUDY    85  58  39 SW6       30.21S
ST JOSEPH      MOSUNNY   85  62  46 SW8       30.18F
CHILLICOTHE      N/A     87  63  44 W7        30.19F
KIRKSVILLE     SUNNY     86  61  42 W10       30.19S

$$
MOZ066>068-077>081-088>096-101>105-302100-
...SOUTHWEST MISSOURI...

CITY           SKY/WX    TMP DP  RH WIND       PRES   REMARKS
SPRINGFIELD    MOSUNNY   89  53  29 E8        30.19F
JOPLIN         CLOUDY    87  62  43 NE7       30.17F

$$
MOZ032>034-039>042-045>050-055>058-069>072-302100-
...CENTRAL MISSOURI...

CITY           SKY/WX    TMP DP  RH WIND       PRES   REMARKS
COLUMBIA       PTSUNNY   86  63  45 SW6       30.19F
JEFFERSON CITY PTSUNNY   87  56  34 NE3       30.17F
ROLLA          PTSUNNY   86  57  37 N5        30.19S
SEDALIA        CLOUDY    87  56  34 VRB3      30.20F
OSAGE BEACH    CLOUDY    84  55  37 E3        30.19F

$$
MOZ051-052-059>065-302100-
...EAST CENTRAL MISSOURI...

CITY           SKY/WX    TMP DP  RH WIND       PRES   REMARKS
ST LOUIS INTL  PTSUNNY   92  58  31 NW10      30.16F HX  91
SPIRIT OF STL  MOSUNNY   88  58  36 W7        30.15S
ST CHARLES     PTSUNNY   89  59  36 NW9       30.14F

$$
MOZ072>076-082>087-097>100-106>115-302100-
...SOUTH CENTRAL AND SOUTHEAST MISSOURI...

CITY           SKY/WX    TMP DP  RH WIND       PRES   REMARKS
CAPE GIRARDEAU NOT AVBL
FARMINGTON     SUNNY     86  57  37 NE8       30.22S
POPLAR BLUFF   SUNNY     88  63  43 NE6       30.13F
WEST PLAINS    MOSUNNY   85  57  38 CALM      30.20F

$$



USA.gov is the U.S. government's official web portal to all federal, state and local government web resources and services.